Weather History for KMIE - July, 2013

Change the Weather History Date:

Wednesday, July 31, 2013

  Actual Average Record
Temperature  
Mean Temperature 70 °F 74 °F  
Max Temperature 73 °F 84 °F 94 °F (1975)
Min Temperature 66 °F 64 °F 47 °F (1993)
Degree Days  
Heating Degree Days 0 0  
Month to date heating degree days 7 0  
Since 1 June heating degree days 21 27  
Since 1 July heating degree days 7 3  
Cooling Degree Days 5 9  
Month to date cooling degree days 230 294  
Year to date cooling degree days 604 593  
Since 1 June cooling degree days 436 510  
Growing Degree Days 19 (Base 50)    
Moisture  
Dew Point 66 °F    
Average Humidity 85    
Maximum Humidity 97    
Minimum Humidity 73    
Precipitation  
Precipitation 0.19 in 0.12 in 1.37 in (1992)
Month to date precipitation 1.82 4.38  
Year to date precipitation 22.61 24.61  
Sea Level Pressure  
Sea Level Pressure 30.02 in    
Wind  
Wind Speed 4 mph (SSW)    
Max Wind Speed 10 mph    
Max Gust Speed 13 mph    
Visibility 5 miles    
Events Rain    
T = Trace of Precipitation, MM = Missing Value Source: NWS Daily Summary

Daily Weather History Graph

Daily Weather History Graph

Search for Another Location

Airport or City:

Trip Planner

Search our weather history database for the weather conditions in past years. The results will help you decide how hot, cold, wet, or windy it might be!

Date:

Astronomy

Jul. 31, 2013 Rise Set
Actual Time 6:38 AM EDT 8:56 PM EDT
Civil Twilight 6:08 AM EDT 9:27 PM EDT
Nautical Twilight 5:30 AM EDT 10:04 PM EDT
Astronomical Twilight 4:48 AM EDT 10:45 PM EDT
Moon 1:33 AM EDT 4:12 PM EDT
Length of Visible Light 15h 18m
Length of Day
14h 17m
Waning Crescent, 32% of the Moon is Illuminated
Jul 31
Waning Crescent
Aug 6
New
Aug 14
First Quarter
Aug 20
Full
Aug 28
Last Quarter

Hourly Weather History & Observations

Time (EDT) Temp. Dew Point Humidity Pressure Visibility Wind Dir Wind Speed Gust Speed Precip Events Conditions
12:53 AM 69.1 °F 60.1 °F 73% 30.10 in 10.0 mi South 6.9 mph - N/A   Mostly Cloudy
1:53 AM 66.9 °F 63.0 °F 87% 30.09 in 9.0 mi South 4.6 mph - 0.02 in   Overcast
3:53 AM 66.9 °F 62.1 °F 84% 30.07 in 10.0 mi South 5.8 mph - N/A   Scattered Clouds
4:53 AM 66.9 °F 62.1 °F 84% 30.06 in 10.0 mi SSW 5.8 mph - N/A   Partly Cloudy
5:53 AM 66.0 °F 62.1 °F 87% 30.06 in 10.0 mi South 4.6 mph - N/A   Overcast
6:53 AM 66.0 °F 62.1 °F 87% 30.06 in 10.0 mi South 5.8 mph - N/A   Overcast
7:26 AM 66.2 °F 62.6 °F 88% 30.08 in 10.0 mi South 3.5 mph - N/A   Overcast
7:53 AM 66.0 °F 62.1 °F 87% 30.06 in 10.0 mi South 5.8 mph - N/A   Overcast
8:51 AM 66.2 °F 64.4 °F 94% 30.08 in 5.0 mi South 5.8 mph - 0.01 in Rain Light Rain
8:53 AM 66.0 °F 63.0 °F 90% 30.05 in 6.0 mi South 5.8 mph - 0.01 in Rain Light Rain
9:43 AM 66.2 °F 64.4 °F 94% 30.08 in 2.0 mi South 4.6 mph - 0.03 in Rain Light Rain
9:53 AM 66.0 °F 64.0 °F 93% 30.06 in 1.2 mi South 5.8 mph - 0.06 in Rain Rain
10:09 AM 66.2 °F 64.4 °F 94% 30.07 in 2.0 mi South 6.9 mph - 0.02 in Rain Light Rain
10:30 AM 66.2 °F 64.4 °F 94% 30.07 in 3.0 mi South 6.9 mph - 0.03 in Rain Light Rain
10:53 AM 66.9 °F 64.9 °F 93% 30.04 in 6.0 mi SSW 5.8 mph - 0.03 in   Overcast
11:16 AM 68.0 °F 64.4 °F 88% 30.06 in 10.0 mi South 6.9 mph - N/A   Overcast
11:53 AM 69.1 °F 64.9 °F 87% 30.03 in 10.0 mi SSW 5.8 mph - N/A   Overcast
12:53 PM 70.0 °F 66.0 °F 87% 30.02 in 8.0 mi SW 3.5 mph - N/A   Overcast
1:06 PM 69.8 °F 66.2 °F 88% 30.04 in 7.0 mi South 5.8 mph - N/A   Overcast
1:46 PM 69.8 °F 66.2 °F 88% 30.04 in 2.5 mi SSW 6.9 mph - 0.01 in Rain Light Rain
1:50 PM 69.8 °F 66.2 °F 88% 30.04 in 1.8 mi SSW 5.8 mph - 0.02 in Rain Light Rain
1:53 PM 69.1 °F 66.9 °F 93% 30.01 in 1.2 mi SW 4.6 mph - 0.02 in Rain Light Rain
2:09 PM 69.8 °F 66.2 °F 88% 30.03 in 2.0 mi SSW 3.5 mph - 0.01 in Rain Light Rain
2:19 PM 69.8 °F 66.2 °F 88% 30.02 in 3.0 mi SSW 5.8 mph - 0.01 in Rain Light Rain
2:21 PM 69.8 °F 66.2 °F 88% 30.02 in 2.5 mi South 6.9 mph - 0.02 in Rain Light Rain
2:44 PM 69.8 °F 66.2 °F 88% 30.02 in 4.0 mi South 8.1 mph - 0.03 in Rain Light Rain
2:53 PM 70.0 °F 66.9 °F 90% 30.00 in 8.0 mi South 5.8 mph - 0.03 in   Overcast
3:53 PM 71.1 °F 66.9 °F 87% 29.99 in 7.0 mi Calm Calm - N/A   Overcast
4:53 PM 72.0 °F 66.9 °F 84% 29.97 in 5.0 mi West 3.5 mph - 0.00 in Rain Light Rain
4:58 PM 71.6 °F 66.2 °F 83% 30.00 in 2.5 mi West 3.5 mph - 0.01 in Rain Light Rain
5:04 PM 71.6 °F 68.0 °F 88% 29.99 in 1.8 mi West 3.5 mph - 0.02 in Rain Rain
5:14 PM 71.6 °F 68.0 °F 88% 29.99 in 2.5 mi West 3.5 mph - 0.02 in Rain Light Rain
5:23 PM 71.6 °F 68.0 °F 88% 29.99 in 3.0 mi Calm Calm - 0.02 in   Overcast
5:53 PM 72.0 °F 68.0 °F 87% 29.96 in 4.0 mi Calm Calm - 0.02 in   Overcast
6:53 PM 72.0 °F 68.0 °F 87% 29.95 in 4.0 mi Calm Calm - N/A   Overcast
7:53 PM 72.0 °F 69.1 °F 91% 29.94 in 3.0 mi Calm Calm - 0.00 in   Overcast
8:53 PM 71.1 °F 68.0 °F 90% 29.93 in 5.0 mi WSW 3.5 mph - 0.00 in   Mostly Cloudy
9:37 PM 69.8 °F 68.0 °F 94% 29.96 in 6.0 mi SW 4.6 mph - N/A   Mostly Cloudy
9:53 PM 71.1 °F 68.0 °F 90% 29.94 in 6.0 mi SW 3.5 mph - N/A   Mostly Cloudy
10:53 PM 70.0 °F 68.0 °F 93% 29.95 in 5.0 mi West 3.5 mph - N/A   Overcast
11:10 PM 69.8 °F 68.0 °F 94% 29.97 in 5.0 mi West 4.6 mph - N/A   Overcast
11:45 PM 69.8 °F 68.0 °F 94% 29.98 in 4.0 mi WNW 4.6 mph - N/A   Overcast
11:53 PM 70.0 °F 68.0 °F 93% 29.95 in 5.0 mi NW 5.8 mph - N/A   Overcast